SL-12 DEB, 42974

Orbit data source: Space-Track

SL-12 DEB, 42974 is space debris in HEO originally from a launch on Thu, 02 Sep 2010 UTC launched from the Tyuratam Missile And Space Complex (TTMTR). Debris objects in space refer to the collection of defunct objects orbiting the Earth. Examples of debris include non-operational satellites, rocket bodies, and fragments generated from explosions, collisions, or faulty payload assembly.

Loading next visibility...
Identifier
42974, 2010-041P
Orbit
HEO
Country
Flag of CISCIS
Related business
Manufacturer
RKKE
Mission
Spacecraft
Bus & Motor
Unknown
Mass
Unknown
Launch date (UTC)
2010-09-02 (15 years ago)
Launch vehicle
Unknown
Launch site
Tyuratam Missile And Space Complex (TTMTR)
Object type
Payload
Rocket body
Debris
Shape & HBR
Unknown shape, 0.6 m
Radar Cross Section
Medium (>0.1 m² and <1 m²)

Expand to show TLE details & history
Last TLE update: 23 hours ago

TLE from 23 hours ago
0 SL-12 DEB
1 42974U 10041P   25340.36578114  .00000172  00000-0  40381-3 0  9990
2 42974  64.7951 131.5249 5650029 318.1458  10.2339  4.32618683129597
Epoch: 2025-12-06T08:46Z
TLE epoch observation values (Epoch: 2025-12-06T08:46:43.490Z)
Latitude
-0.00015°
Longitude
-75.55085°
Altitude
1,247.128 km
Speed
8.917 km/s
True Right ascension
08h 46m 05s
True Declination
0° 00' 01"
Sunlit
Object was in daylight at epoch
Visualization orbit readout
Latitude
Unknown
Longitude
Unknown
Altitude
Unknown
Speed
Unknown
Apparent Right ascension
Unknown
Apparent Declination
Unknown
Sunlit
N/A
Visualization observer readout
Local Sidereal Time
05:53:18
Azimuth
Unknown
Elevation
Unknown
Doppler factor
Unknown
Orbital elements
Apogee altitude
18,519.019 km
Perigee altitude
542.1 km
Semi-major axis
15,908.696 km
Eccentricity
0.565
Inclination
64.7951°
RAAN
131.5249°
Arg. of periapsis
318.1458°
True anomaly
41.78257°
Mean anomaly
10.2339°
Eccentric anomaly
22.75546°
Mean motion
1.08166 °/min
Orbital period
332.82 mins
BSTAR
0.00040381
Loading maneuver chart data...
Computing Atmospheric mass density...
Loading historical data...
Loading historical data...
Loading historical data...
Loading historical data...
Loading historical data...
Loading historical data...
Loading historical data...

Documentation

Showing up to 5 results
|